"Pseudo-MPEC" for ZTF0NVI

Created 2021 Nov 27 12:07:30 UT using Find_Orb

Click here for an explanation of pseudo-MPECs

 
 Astrometry: 
     ZTF0NVI  C2021 11 22.34746503 26 22.37 +76 36 18.7    ~BMCM 16.64RUNEOCPI41
     ZTF0NVI  C2021 11 22.34781303 26 10.01 +76 36 50.7    ~BMCM 16.64RUNEOCPI41
     ZTF0NVI  C2021 11 22.41071002 46 29.90 +77 56 53.5    ~BMCM       UNEOCPI41
     ZTF0NVI  C2021 11 22.41105802 46 15.86 +77 57 14.6    ~BMCM       UNEOCPI41

Station data:
(I41) Palomar Mountain--ZTF  (N33.357340 W116.859780)  US/California. 1.2-m
   f/2.44 Oschin Schmidt + CCD.

Orbital elements:  ZTF0NVI
   Perigee 2021 Nov 21.684570 +/- 43.6518 TT = 16:25:46 (JD 2459540.184570)
Epoch 2021 Nov 22.0 TT = JDT 2459540.5                        AutoNEOCP
q587407.700 +/- 4.96155e+7          (J2000 equator)
H   26.1  G 0.15                    Peri.   29.85099 +/- 99.961403
                                    Node   101.87353 +/- 67.181044
e 240.7332492 +/- 0.293535          Incl.  100.50945 +/- 30.739141
From 4 observations 2021 Nov. 22 (91.6 min); mean residual 0".39
Residuals in arcseconds: 
211122 I41  .38-  .15+    211122 I41  .67+  .02-    
211122 I41  .38+  .15-    211122 I41  .67-  .02+    

Ephemerides (geocentric):
Date (UTC) HH   RA              Dec         delta   r     elong  mag " sig PA
---- -- -- --  -------------   -----------  ------ ------ -----  --- ---- ---
2021 11 27 12  20 14 02.039   +63 09 18.69  .04299 0.9925  96.5 22.1  37d  99
2021 11 27 13  20 13 54.362   +63 07 16.70  .04329 0.9925  96.5 22.1  37d  99
2021 11 27 14  20 13 46.816   +63 05 16.40  .04360 0.9925  96.4 22.1  37d  99
2021 11 27 15  20 13 39.398   +63 03 17.76  .04390 0.9925  96.4 22.2  37d  99
2021 11 27 16  20 13 32.105   +63 01 20.75  .04421 0.9926  96.3 22.2  37d  99
2021 11 27 17  20 13 24.934   +62 59 25.32  .04451 0.9926  96.3 22.2  37d  99
2021 11 27 18  20 13 17.881   +62 57 31.45  .04482 0.9926  96.3 22.2  37d  99
2021 11 27 19  20 13 10.945   +62 55 39.12  .04512 0.9926  96.2 22.2  37d  99
2021 11 27 20  20 13 04.122   +62 53 48.28  .04542 0.9926  96.2 22.2  37d  99
2021 11 27 21  20 12 57.411   +62 51 58.91  .04573 0.9926  96.2 22.2  38d  99
2021 11 27 22  20 12 50.808   +62 50 10.98  .04603 0.9926  96.1 22.3  38d  99
2021 11 27 23  20 12 44.311   +62 48 24.47  .04634 0.9926  96.1 22.3  38d  99
2021 11 28 00  20 12 37.917   +62 46 39.34  .04664 0.9926  96.0 22.3  38d  99
2021 11 28 01  20 12 31.625   +62 44 55.57  .04694 0.9926  96.0 22.3  38d  99
2021 11 28 02  20 12 25.432   +62 43 13.14  .04725 0.9927  96.0 22.3  38d  99
2021 11 28 03  20 12 19.336   +62 41 32.02  .04755 0.9927  95.9 22.3  38d  99
2021 11 28 04  20 12 13.335   +62 39 52.18  .04786 0.9927  95.9 22.3  38d  99
2021 11 28 05  20 12 07.427   +62 38 13.60  .04816 0.9927  95.9 22.4  38d  99
2021 11 28 06  20 12 01.609   +62 36 36.26  .04847 0.9927  95.8 22.4  38d  99
2021 11 28 07  20 11 55.881   +62 35 00.13  .04877 0.9927  95.8 22.4  38d  99
2021 11 28 08  20 11 50.239   +62 33 25.20  .04907 0.9927  95.8 22.4  38d  99
2021 11 28 09  20 11 44.683   +62 31 51.44  .04938 0.9927  95.7 22.4  38d  99
2021 11 28 10  20 11 39.210   +62 30 18.83  .04968 0.9927  95.7 22.4  38d  99
2021 11 28 11  20 11 33.819   +62 28 47.35  .04999 0.9927  95.7 22.4  38d  99
2021 11 28 12  20 11 28.508   +62 27 16.98  .05029 0.9928  95.6 22.5  38d  99
2021 11 28 13  20 11 23.275   +62 25 47.70  .05059 0.9928  95.6 22.5  38d  99
2021 11 28 14  20 11 18.120   +62 24 19.49  .05090 0.9928  95.6 22.5  38d  99
2021 11 28 15  20 11 13.039   +62 22 52.33  .05120 0.9928  95.5 22.5  38d  99
2021 11 28 16  20 11 08.033   +62 21 26.20  .05151 0.9928  95.5 22.5  38d  99
2021 11 28 17  20 11 03.098   +62 20 01.09  .05181 0.9928  95.5 22.5  38d  99
2021 11 28 18  20 10 58.235   +62 18 36.99  .05211 0.9928  95.4 22.5  38d  99
2021 11 28 19  20 10 53.441   +62 17 13.86  .05242 0.9928  95.4 22.6  38d  99
2021 11 28 20  20 10 48.716   +62 15 51.70  .05272 0.9928  95.4 22.6  38d  99
2021 11 28 21  20 10 44.057   +62 14 30.48  .05303 0.9928  95.3 22.6  38d  99
2021 11 28 22  20 10 39.464   +62 13 10.20  .05333 0.9928  95.3 22.6  38d  99
2021 11 28 23  20 10 34.936   +62 11 50.84  .05363 0.9929  95.3 22.6  38d  99
2021 11 29 00  20 10 30.470   +62 10 32.38  .05394 0.9929  95.2 22.6  38d  99
2021 11 29 01  20 10 26.067   +62 09 14.81  .05424 0.9929  95.2 22.6  38d  99
2021 11 29 02  20 10 21.725   +62 07 58.11  .05454 0.9929  95.2 22.6  38d  99
2021 11 29 03  20 10 17.442   +62 06 42.27  .05485 0.9929  95.2 22.7  38d  99
2021 11 29 04  20 10 13.217   +62 05 27.27  .05515 0.9929  95.1 22.7  38d  99
2021 11 29 05  20 10 09.051   +62 04 13.10  .05546 0.9929  95.1 22.7  38d  99
2021 11 29 06  20 10 04.941   +62 02 59.76  .05576 0.9929  95.1 22.7  38d  99
2021 11 29 07  20 10 00.886   +62 01 47.22  .05606 0.9929  95.0 22.7  38d  99
2021 11 29 08  20 09 56.886   +62 00 35.47  .05637 0.9929  95.0 22.7  38d  99
2021 11 29 09  20 09 52.939   +61 59 24.49  .05667 0.9929  95.0 22.7  38d  99
2021 11 29 10  20 09 49.045   +61 58 14.29  .05697 0.9930  95.0 22.7  38d  99
2021 11 29 11  20 09 45.203   +61 57 04.85  .05728 0.9930  94.9 22.8  38d  99